Location: Shepherdstown, WV
(39.4326°N, 77.8042°W)
Time: 14:39:45
(UTC-04:00)

Vanguard 1 Rocket - Pass Details

Date: 07 August 2021
Orbit: 650 x 4226 km, 34.3° (Epoch: 20 September)

Event Time Altitude Azimuth Distance (km) Brightness Sun altitude
Rises 09:40:38 0° 240° (WSW) 8,457 12.0 37.8°
Reaches altitude 10° 09:46:42 10° 238° (WSW) 7,407 11.8 38.9°
Maximum altitude 10:11:08 65° 164° (SSE) 3,464 11.3 43.5°
Drops below altitude 10° 10:25:24 10° 87° (E) 4,652 11.9 46.1°
Sets 10:28:13 0° 84° (E) 5,295 11.9 46.6°
